EHI
0 0 0 0 0 0 0 0 0 0 0 0 0 0 0 0 0 0 0 0 1 3 4 3 1 0 0 0 1 2 2 2 1 2 2 1 0 0 0 0 1 2 3
0 0 0 0 0 0 0 0 0 0 0 0 0 0 0 0 0 0 0 0 0 2 3 2 1 0 0 0 0 1 1 1 0 1 1 0 0 0 0 0 1 1 1
0 0 0 0 0 0 0 0 0 0 0 0 0 0 0 0 0 0 0 0 0 0 1 1 0 1 1 1 0 0 0 0 0 0 0 0 0 0 0 0 0 0 0
0 0 0 0 0 0 0 0 0 0 0 0 0 0 0 0 0 0 0 0 0 0 0 0 0 1 2 1 0 0 0 0 0 0 0 0 0 0 0 0 0 0 0
0 0 0 0 0 0 0 0 0 0 0 0 0 0 0 0 0 0 0 0 0 0 0 0 0 0 1 1 0 0 0 0 0 0 0 0 0 0 0 0 0 0 0
0 0 0 0 0 0 0 0 0 0 0 0 0 0 0 0 0 0 0 0 0 0 0 0 0 0 0 0 0 0 0 0 0 0 0 0 0 0 0 0 0 0 0
0 0 0 0 1 1 0 0 0 0 0 0 0 0 0 0 0 0 0 0 0 0 0 0 0 0 0 0 0 0 0 0 0 0 0 0 0 0 0 0 0 0 0
0 0 0 1 2 2 1 0 0 0 0 0 0 0 0 0 0 0 0 0 0 0 0 0 0 0 0 0 0 0 0 0 0 0 0 0 0 0 0 0 0 0 0
0 0 0 1 2 3 1 1 1 0 0 0 0 0 0 0 0 0 0 0 0 0 0 0 0 0 0 0 0 0 0 0 0 0 0 0 0 0 0 0 0 0 0
0 0 0 1 2 3 3 2 2 1 0 0 0 0 0 0 0 0 0 0 0 0 0 0 0 0 0 0 0 0 0 0 0 0 0 0 0 0 0 0 0 0 0
0 0 0 0 1 2 3 3 3 2 1 0 0 0 0 0 0 0 0 0 0 0 0 0 0 0 0 0 0 0 0 0 0 0 0 0 0 0 0 0 0 0 0
0 0 1 1 1 1 2 3 3 3 2 1 0 0 0 0 0 0 0 0 0 0 0 0 0 0 0 0 0 0 0 0 0 0 0 0 0 0 0 0 0 0 0
0 0 0 1 1 1 1 3 3 3 2 1 0 0 0 0 0 0 0 0 0 0 0 0 0 0 0 0 0 0 0 0 0 0 0 0 0 0 0 0 0 0 0
0 0 0 0 0 0 1 2 2 2 2 1 0 0 0 0 0 0 0 0 0 0 0 0 0 0 0 0 0 0 0 0 0 0 0 0 0 0 0 0 0 0 0
0 0 0 0 0 0 0 1 1 1 1 0 0 0 0 0 0 0 0 0 0 0 0 0 0 0 0 0 0 0 0 0 0 0 0 0 0 0 0 0 0 0 0
1 1 0 0 0 0 0 0 0 0 0 0 0 0 0 0 0 0 0 0 0 0 0 0 0 0 0 0 0 0 0 0 0 0 0 0 0 0 0 0 0 0 0
2 2 1 0 0 0 0 0 0 0 0 0 0 0 0 0 0 0 0 0 0 0 0 0 0 0 0 0 0 0 0 0 0 0 0 0 0 0 0 0 0 0 0
2 2 1 0 0 0 0 0 0 0 0 0 0 0 0 0 0 0 0 0 0 0 0 0 0 0 0 0 0 0 0 0 0 0 0 0 0 0 0 0 0 0 0
1 1 0 0 0 0 0 0 0 0 0 0 0 0 0 0 0 0 0 0 0 0 0 0 0 0 0 0 0 0 0 0 0 0 0 0 0 0 0 0 0 0 0
2 1 0 0 0 0 0 0 0 0 0 0 0 0 0 0 0 0 0 0 0 0 0 0 0 0 0 0 0 0 0 0 0 0 0 0 0 0 0 0 0 0 0
2 1 0 0 0 0 0 0 0 0 0 0 0 0 0 0 0 0 0 0 0 0 0 0 0 0 0 0 0 0 0 0 0 0 0 0 0 0 0 0 0 0 0
1 0 0 0 0 0 0 0 0 0 0 0 0 0 0 0 0 0 0 0 0 0 0 0 0 0 0 0 0 0 0 0 0 0 0 0 0 0 0 0 0 0 0
3 2 1 0 0 0 0 0 0 0 0 0 0 0 0 0 0 0 0 0 0 0 0 0 0 0 0 0 0 0 0 0 0 0 0 0 0 0 0 0 0 0 0
5 4 3 2 1 0 0 0 0 0 0 0 0 0 0 0 0 0 0 0 0 0 0 0 0 0 0 0 0 0 0 0 0 0 0 0 0 0 0 0 0 0 0
6 5 4 4 3 1 0 0 0 0 0 0 0 0 0 0 0 0 0 0 0 0 0 0 0 0 0 0 0 0 0 0 0 0 0 0 0 0 0 0 0 0 0
6 5 4 5 5 2 1 0 0 0 0 0 0 0 0 0 0 0 0 0 0 0 0 0 0 0 0 0 0 0 0 0 0 0 0 0 0 0 0 0 0 0 0
Wind_Speed
3 3 3 3 3 2 2 3 4 5 5 5 5 6 6 6 6 5 4 10 11 11 10 9 10 9 9 9 9 9 9 8 8 8 8 9 9 9 9 9 9 9 9
3 3 3 3 3 3 3 3 4 4 4 4 5 5 5 5 5 4 4 6 10 10 11 10 9 9 9 9 9 9 9 8 8 8 7 8 8 8 8 8 8 8 8
4 3 3 3 3 3 4 4 4 3 3 4 4 4 4 4 4 4 4 4 4 8 10 11 10 10 10 10 10 9 8 8 8 8 8 8 8 8 7 7 7 7 7
5 4 3 3 3 3 3 3 3 3 3 3 3 3 3 3 4 4 4 4 3 4 6 10 9 9 9 10 10 10 9 8 8 8 8 8 7 7 7 6 6 6 6
5 4 3 2 3 3 3 3 3 3 3 3 2 2 2 2 2 3 4 4 4 4 3 6 9 9 9 9 9 9 9 9 8 8 8 8 7 6 6 6 6 6 6
4 3 2 3 4 3 3 3 3 2 2 1 2 2 2 2 2 3 3 3 3 4 4 4 4 5 8 9 9 9 9 8 8 8 7 7 6 6 6 6 6 6 5
3 3 3 3 3 3 2 3 2 2 1 1 2 2 2 2 3 2 2 2 3 3 3 4 3 3 3 6 7 7 7 7 6 6 6 6 6 6 5 5 5 5 5
3 3 3 3 3 2 3 3 3 2 2 2 1 1 1 2 2 2 2 2 2 2 3 3 3 3 3 2 4 6 6 5 5 5 5 4 5 4 4 4 4 4 5
3 3 3 3 2 2 2 2 2 2 2 2 2 1 1 1 1 1 2 2 2 2 2 2 3 3 4 3 2 4 6 5 4 4 3 3 3 3 3 4 4 3 4
2 2 2 2 2 2 2 1 2 1 2 2 2 2 1 1 1 1 2 2 2 2 2 2 3 2 3 3 4 5 6 5 4 3 3 3 3 3 3 3 3 3 4
1 2 1 1 1 2 1 2 2 2 1 1 1 1 2 1 0 2 0 0 1 1 2 2 2 2 3 3 2 4 5 4 4 4 3 3 3 3 3 3 3 3 3
1 1 1 1 0 1 1 1 1 1 1 1 1 1 1 1 1 1 1 1 0 0 1 2 2 2 2 2 4 6 5 5 5 5 5 4 3 3 3 3 3 2 2
1 0 1 0 0 1 1 1 1 1 1 1 0 0 1 1 1 1 1 0 0 0 1 1 1 2 2 2 2 5 5 5 4 4 4 4 3 3 3 2 2 1 1
1 1 1 1 0 0 1 2 1 0 1 1 0 0 1 1 1 1 1 1 1 1 1 0 1 2 2 2 3 4 3 4 4 4 5 5 4 4 3 3 2 2 1
1 1 1 1 1 1 1 1 1 1 0 0 0 1 0 0 1 1 0 1 2 1 1 0 1 0 1 2 3 2 2 3 4 4 4 5 4 4 4 3 3 3 3
1 1 1 1 1 2 1 1 0 0 1 0 0 0 0 0 1 0 1 0 1 1 1 0 0 1 1 3 4 2 2 3 4 4 4 4 4 4 4 4 4 4 3
1 1 1 1 1 2 2 1 1 0 0 1 1 1 0 0 1 0 0 0 0 1 1 1 0 1 2 2 2 1 2 2 2 3 3 3 3 3 3 3 4 4 3
1 1 2 1 1 1 1 2 1 1 1 1 1 1 1 1 1 0 0 0 0 1 2 2 1 1 1 2 2 2 2 2 2 3 3 3 3 3 3 3 3 3 4
1 1 1 1 1 1 1 1 1 1 1 1 1 1 1 1 1 1 1 0 0 0 1 2 1 1 1 1 2 1 1 0 1 2 2 2 2 2 2 2 2 2 3
1 1 1 0 1 1 0 1 0 0 1 1 1 1 1 1 1 1 1 1 1 1 1 1 1 0 0 1 2 1 1 1 0 1 1 2 2 2 1 1 2 2 2
1 1 1 0 0 1 1 1 1 1 1 1 1 1 1 2 2 1 1 1 1 1 1 1 1 0 0 1 1 1 1 0 0 0 1 0 1 1 1 0 1 1 1
1 1 1 1 0 0 2 1 1 1 1 1 0 1 1 1 2 3 3 2 1 2 2 1 1 1 2 1 1 1 1 1 1 1 1 0 1 1 1 1 1 2 1
1 1 1 1 1 1 2 1 2 1 1 0 0 0 0 1 2 2 1 1 1 1 1 2 2 2 2 2 2 2 2 2 2 2 2 0 0 0 1 1 2 2 2
1 1 1 2 1 1 1 1 2 1 1 1 1 1 1 1 1 1 2 1 1 0 1 1 2 1 1 2 3 3 3 2 1 0 2 1 1 1 1 1 3 3 2
1 2 2 2 2 2 2 2 1 1 1 1 1 0 1 1 2 2 1 1 1 1 1 1 0 0 1 1 1 1 1 1 1 1 1 2 1 1 1 1 2 3 2
2 2 2 2 2 2 3 2 2 1 1 1 0 0 1 1 2 1 1 1 1 1 0 0 0 1 1 0 1 2 2 2 1 2 2 2 1 1 1 1 1 1 1
Wind_Direction
63 61 60 57 57 53 55 44 51 51 51 50 58 64 64 68 73 75 83 85 85 84 86 95 97 96 95 92 89 84 84 85 84 81 79 77 73 69 68 67 69 71 74
68 61 61 58 50 43 46 52 59 58 54 54 56 59 61 63 73 82 87 83 82 83 83 85 93 93 91 89 90 87 82 80 79 79 81 83 81 76 72 70 73 73 73
81 73 60 60 51 47 45 43 48 57 65 64 57 56 64 63 65 77 85 87 82 80 82 84 85 86 86 83 82 80 79 78 79 81 79 79 79 77 74 72 75 76 77
75 70 64 61 57 53 52 48 42 44 51 55 54 46 55 64 70 76 80 86 88 86 79 82 84 85 85 84 79 76 74 76 77 79 77 76 75 76 75 75 75 77 79
72 75 68 64 62 54 50 53 49 42 47 51 64 63 49 49 57 70 78 81 82 93 95 89 85 79 82 82 78 75 73 71 70 71 74 71 69 73 75 76 76 80 83
67 72 73 64 62 59 54 54 55 47 45 41 55 75 81 73 64 58 63 72 75 90 99 97 90 77 77 77 77 77 74 71 68 66 66 67 67 70 74 76 78 83 84
70 76 66 63 62 60 63 66 57 41 33 40 49 47 49 79 93 80 61 65 65 71 83 89 93 91 80 72 72 76 74 71 68 66 63 66 68 70 75 77 78 82 79
63 79 84 80 73 57 43 50 49 25 13 35 62 65 47 20 35 84 93 77 67 71 72 80 87 87 89 84 67 70 68 65 67 67 65 68 70 71 74 77 79 83 82
62 56 77 83 97 90 75 57 52 46 16 360 34 72 94 79 8 7 71 85 85 80 75 77 84 85 91 88 83 59 60 54 58 67 68 71 76 77 78 78 82 92 90
82 66 62 87 105 102 104 104 82 52 51 14 3 14 61 131 127 28 8 46 84 97 94 85 85 86 87 87 82 67 59 50 49 57 71 79 82 78 82 84 86 90 93
93 93 69 58 80 97 103 75 75 51 58 52 22 3 3 353 45 129 129 21 24 53 93 96 96 90 89 87 91 76 68 55 50 53 61 68 71 79 81 82 83 86 96
96 96 96 70 89 116 125 110 108 98 75 52 13 29 35 22 3 76 116 143 111 333 69 91 90 89 90 87 87 77 72 59 54 50 51 54 57 64 73 75 75 89 108
108 141 105 102 99 154 143 126 132 140 140 115 26 10 5 1 44 58 84 80 93 286 70 79 113 108 103 101 94 84 76 67 56 50 50 46 44 52 52 52 52 77 123
154 178 165 168 157 134 116 124 129 193 141 141 142 90 37 5 29 64 105 93 46 10 76 216 100 115 120 115 106 96 78 73 68 62 57 51 49 51 50 36 28 42 98
180 192 183 183 167 161 138 122 141 225 133 148 144 113 105 63 31 17 59 132 133 127 285 260 46 128 113 105 119 108 93 83 81 75 68 62 60 56 51 40 31 39 52
195 198 204 197 176 159 158 132 154 212 132 128 102 52 74 121 86 13 330 17 110 139 188 232 172 181 117 110 120 111 101 93 91 88 79 71 65 62 56 50 45 46 61
199 211 232 189 171 165 166 146 151 126 194 209 191 162 187 107 117 141 334 1 44 114 144 249 150 124 105 103 100 103 104 105 105 102 91 83 71 67 66 62 53 50 60
193 230 231 187 182 164 164 152 180 193 207 250 228 180 195 163 139 144 106 227 201 166 154 183 197 124 128 140 127 125 119 121 120 112 105 94 87 75 73 73 67 61 62
193 240 227 165 170 168 190 189 188 194 195 225 230 186 196 151 169 171 159 209 237 155 140 151 187 145 139 132 115 119 109 87 140 125 131 120 102 83 70 81 82 75 70
174 199 234 172 154 161 120 92 87 233 223 219 176 137 134 150 179 185 174 207 183 120 118 133 149 162 187 167 127 144 54 19 46 73 76 114 122 116 95 76 79 65 67
217 203 210 196 187 150 84 62 26 305 272 245 190 151 123 98 104 124 133 172 154 144 147 161 169 134 199 142 182 181 167 201 359 80 81 81 117 90 81 114 127 71 69
215 197 194 172 176 122 85 69 27 284 259 240 215 175 157 131 95 80 80 72 95 154 168 170 189 194 206 197 183 165 168 163 279 267 128 15 90 96 127 136 121 129 145
196 170 185 170 165 135 114 66 346 318 278 209 188 258 268 159 148 142 118 77 40 14 182 176 187 219 206 194 167 167 170 184 216 218 131 191 145 207 229 189 173 171 162
175 185 200 191 177 186 180 224 303 271 287 251 175 208 190 123 117 113 134 134 144 288 233 204 186 209 197 185 181 195 194 185 211 246 134 179 217 223 244 198 191 176 176
185 201 199 191 197 203 193 206 234 246 260 255 229 251 134 128 77 68 97 136 148 268 239 129 102 30 35 63 115 110 143 157 228 252 189 160 207 222 238 218 198 181 180
203 206 222 205 195 188 176 191 214 227 239 236 167 101 82 112 99 77 152 145 193 247 148 144 348 329 306 208 145 166 181 186 200 225 211 162 195 155 277 264 201 203 208